Weather History for Dublin, Ireland

Change the Weather History Date:

Saturday, March 30, 2013

  Actual Average Record
Temperature  
Mean Temperature 38 °F -  
Max Temperature 42 °F 53 °F 59 °F (2011)
Min Temperature 33 °F 40 °F 33 °F (2001)
Degree Days  
Heating Degree Days 28    
Moisture  
Dew Point 24 °F    
Average Humidity 58    
Maximum Humidity 70    
Minimum Humidity 37    
Precipitation  
Precipitation 0.00 in 0.07 in - ()
Sea Level Pressure  
Sea Level Pressure 29.92 in    
Wind  
Wind Speed 12 mph ()    
Max Wind Speed 18 mph    
Max Gust Speed -    
Visibility 6.2 miles    
Events      
Averages and records for this station are not official NWS values.
T = Trace of Precipitation, MM = Missing Value Source: Averaged Metar Reports

Daily Weather History Graph

Daily Weather History Graph

Search for Another Location

Airport:

Trip Planner

Search our weather history database for the weather conditions in past years. The results will help you decide how hot, cold, wet, or windy it might be!

Date:

Astronomy

Mar. 30, 2013 Rise Set
Actual Time 6:03 AM GMT 6:57 PM GMT
Civil Twilight 5:27 AM GMT 7:32 PM GMT
Nautical Twilight 4:45 AM GMT 8:15 PM GMT
Astronomical Twilight 3:59 AM GMT 9:01 PM GMT
Moon 11:24 PM GMT (3/30) 7:16 AM GMT (3/30)
Length of Visible Light 14h 04m
Length of Day
12h 53m
Waning Gibbous, 88% of the Moon is Illuminated
Mar 30
Waning Gibbous
Apr 3
Last Quarter
Apr 10
New
Apr 18
First Quarter
Apr 25
Full

Hourly Weather History & Observations

Time (GMT) Temp. Windchill Dew Point Humidity Pressure Visibility Wind Dir Wind Speed Gust Speed Precip Events Conditions
12:00 AM 37 °F - 24 °F 46% 29.87 in 25 mi East 13.4 mph - -   Mostly Cloudy
12:00 AM 37.4 °F 29.8 °F 24.8 °F 60% 29.86 in 6.2 mi East 11.5 mph - N/A   Mostly Cloudy
12:30 AM 35.6 °F 26.6 °F 24.8 °F 65% 29.86 in 6.2 mi East 13.8 mph - N/A   Mostly Cloudy
1:00 AM 35.6 °F 27.1 °F 24.8 °F 65% 29.86 in 6.2 mi East 12.7 mph - N/A   Mostly Cloudy
1:30 AM 35.6 °F 27.1 °F 24.8 °F 65% 29.86 in 6.2 mi East 12.7 mph - N/A   Mostly Cloudy
2:00 AM 35.6 °F 26.6 °F 24.8 °F 65% 29.86 in 6.2 mi East 13.8 mph - N/A   Mostly Cloudy
2:30 AM 35.6 °F 27.1 °F 24.8 °F 65% 29.86 in 6.2 mi East 12.7 mph - N/A   Mostly Cloudy
3:00 AM 35.6 °F 27.1 °F 24.8 °F 65% 29.86 in 6.2 mi East 12.7 mph - N/A   Mostly Cloudy
3:30 AM 35.6 °F 27.5 °F 24.8 °F 65% 29.86 in 6.2 mi East 11.5 mph - N/A   Mostly Cloudy
4:00 AM 33.8 °F 25.3 °F 23.0 °F 65% 29.89 in 6.2 mi East 11.5 mph - N/A   Mostly Cloudy
4:30 AM 33.8 °F 27.0 °F 23.0 °F 65% 29.89 in 6.2 mi East 8.1 mph - N/A   Mostly Cloudy
5:00 AM 33.8 °F 25.8 °F 24.8 °F 70% 29.89 in 6.2 mi East 10.4 mph - N/A   Mostly Cloudy
5:30 AM 35.6 °F 27.1 °F 23.0 °F 60% 29.89 in 6.2 mi ESE 12.7 mph - N/A   Mostly Cloudy
6:00 AM 35 °F - 22 °F 48% 29.93 in 25 mi East 8.9 mph - -   Mostly Cloudy
6:00 AM 33.8 °F 26.4 °F 23.0 °F 65% 29.89 in 6.2 mi ESE 9.2 mph - N/A   Mostly Cloudy
6:30 AM 33.8 °F 25.3 °F 24.8 °F 70% 29.92 in 6.2 mi East 11.5 mph - N/A   Mostly Cloudy
7:00 AM 33.8 °F 25.8 °F 24.8 °F 70% 29.92 in 6.2 mi ESE 10.4 mph - N/A   Scattered Clouds
7:30 AM 35.6 °F 27.5 °F 24.8 °F 65% 29.92 in 6.2 mi ESE 11.5 mph - N/A   Partly Cloudy
8:00 AM 37.4 °F 28.9 °F 24.8 °F 60% 29.92 in 6.2 mi ESE 13.8 mph - N/A   Partly Cloudy
8:30 AM 37.4 °F 28.5 °F 23.0 °F 56% 29.92 in 6.2 mi ESE 15.0 mph - N/A   Scattered Clouds
9:00 AM 39.2 °F 30.5 °F 23.0 °F 52% 29.92 in 6.2 mi ESE 16.1 mph - N/A   Partly Cloudy
9:30 AM 39.2 °F 29.8 °F 23.0 °F 52% 29.92 in 6.2 mi East 18.4 mph - N/A   Partly Cloudy
10:00 AM 39.2 °F 30.2 °F 23.0 °F 52% 29.92 in 6.2 mi ESE 17.3 mph - N/A   Partly Cloudy
10:30 AM 41.0 °F 32.8 °F 23.0 °F 49% 29.92 in 6.2 mi ESE 16.1 mph - N/A   Scattered Clouds
11:00 AM 41.0 °F 33.1 °F 21.2 °F 45% 29.95 in 6.2 mi ESE 15.0 mph - N/A   Scattered Clouds
11:30 AM 41.0 °F 33.1 °F 24.8 °F 53% 29.95 in 6.2 mi East 15.0 mph - N/A   Scattered Clouds
12:00 PM 40 °F - 23 °F 37% 29.97 in 37 mi East 15.7 mph - -   Partly Cloudy
12:00 PM 41.0 °F 32.8 °F 23.0 °F 49% 29.95 in 6.2 mi ESE 16.1 mph - N/A   Scattered Clouds
12:30 PM 41.0 °F 33.1 °F 24.8 °F 53% 29.95 in 6.2 mi East 15.0 mph - N/A   Scattered Clouds
1:00 PM 41.0 °F 33.9 °F 23.0 °F 49% 29.95 in 6.2 mi ESE 12.7 mph - N/A   Mostly Cloudy
1:30 PM 41.0 °F 33.9 °F 24.8 °F 53% 29.95 in 6.2 mi East 12.7 mph - N/A   Mostly Cloudy
2:00 PM 39.2 °F 31.6 °F 24.8 °F 56% 29.95 in 6.2 mi East 12.7 mph - N/A   Mostly Cloudy
2:30 PM 39.2 °F 32.0 °F 23.0 °F 52% 29.92 in 6.2 mi ESE 11.5 mph - N/A   Mostly Cloudy
3:00 PM 41.0 °F 33.9 °F 24.8 °F 53% 29.95 in 6.2 mi ESE 12.7 mph - N/A   Mostly Cloudy
3:30 PM 41.0 °F 33.9 °F 24.8 °F 53% 29.95 in 6.2 mi East 12.7 mph - N/A   Mostly Cloudy
4:00 PM 39.2 °F 31.6 °F 24.8 °F 56% 29.95 in 6.2 mi East 12.7 mph - N/A   Mostly Cloudy
4:30 PM 39.2 °F 32.0 °F 26.6 °F 61% 29.95 in 6.2 mi East 11.5 mph - N/A   Mostly Cloudy
5:00 PM 39.2 °F 31.6 °F 26.6 °F 61% 29.95 in 6.2 mi East 12.7 mph - N/A   Mostly Cloudy
5:30 PM 37.4 °F 29.3 °F 26.6 °F 65% 29.92 in 6.2 mi East 12.7 mph - N/A   Mostly Cloudy
6:00 PM 38 °F - 25 °F 48% 29.95 in 37 mi East 13.4 mph - -   Mostly Cloudy
6:00 PM 37.4 °F 29.3 °F 24.8 °F 60% 29.92 in 6.2 mi East 12.7 mph - N/A   Mostly Cloudy
6:30 PM 37.4 °F 29.8 °F 26.6 °F 65% 29.92 in 6.2 mi East 11.5 mph - N/A   Mostly Cloudy
7:00 PM 37.4 °F 30.3 °F 24.8 °F 60% 29.92 in 6.2 mi East 10.4 mph - N/A   Mostly Cloudy
7:30 PM 37.4 °F 30.3 °F 28.4 °F 70% 29.92 in 6.2 mi East 10.4 mph - N/A   Mostly Cloudy
8:00 PM 37.4 °F 29.3 °F 28.4 °F 70% 29.92 in 6.2 mi ESE 12.7 mph - N/A   Mostly Cloudy
8:30 PM 37.4 °F 29.3 °F 24.8 °F 60% 29.95 in 6.2 mi SE 12.7 mph - N/A   Partly Cloudy
9:00 PM 37.4 °F 30.3 °F 24.8 °F 60% 29.95 in 6.2 mi ESE 10.4 mph - N/A   Mostly Cloudy
9:30 PM 37.4 °F 29.8 °F 24.8 °F 60% 29.92 in 6.2 mi ESE 11.5 mph - N/A   Mostly Cloudy
10:00 PM 37.4 °F 28.9 °F 24.8 °F 60% 29.92 in 6.2 mi ESE 13.8 mph - N/A   Scattered Clouds
10:30 PM 37.4 °F 29.8 °F 24.8 °F 60% 29.92 in 6.2 mi ESE 11.5 mph - N/A   Mostly Cloudy
11:00 PM 39.2 °F 32.5 °F 24.8 °F 56% 29.92 in 6.2 mi SE 10.4 mph - N/A   Mostly Cloudy
11:30 PM 39.2 °F 31.6 °F 23.0 °F 52% 29.92 in 6.2 mi SE 12.7 mph - N/A   Mostly Cloudy